Location: *
(34.8620°S, 39.3380°E)
Time: 00:21:50
(UTC+00:00)

H-2A R/B - Pass Details

Date: 27 July 2021
Orbit: 577 x 654 km, 98.5° (Epoch: 20 September)

Event Time Altitude Azimuth Distance (km) Brightness Sun altitude
Rises 03:45:56 0° 168° (SSE) 2,890 5.4 -7.5°
Reaches altitude 10° 03:48:09 10° 168° (SSE) 1,966 4.6 -7.1°
Maximum altitude 03:52:25 88° 250° (WSW) 602 2.0 -6.3°
Drops below altitude 10° 03:56:33 10° 345° (NNW) 1,904 4.6 -5.5°
Sets 03:58:40 0° 345° (NNW) 2,789 5.5 -5.1°
